| time (UTC) | temp F | wind direction | speed MPH | gust MPH | rain 1hr in | rain 24hr in | rain mn in | humidity % | barometer mb |
| 20260510230058 | 76 | 212 | 6.0 | 9.0 | 0.00 | 0.02 | 0.00 | 83 | 1015.6 |
| 20260510224603 | 76 | 216 | 7.0 | 12.0 | 0.00 | 0.02 | 0.00 | 84 | 1015.6 |
| 20260510223055 | 76 | 228 | 6.0 | 10.0 | 0.00 | 0.02 | 0.00 | 82 | 1015.6 |
| 20260510221601 | 76 | 190 | 6.0 | 11.0 | 0.00 | 0.02 | 0.00 | 80 | 1015.6 |
| 20260510220056 | 76 | 203 | 7.0 | 11.0 | 0.00 | 0.02 | 0.00 | 80 | 1015.6 |
| 20260510214553 | 76 | 214 | 6.0 | 11.0 | 0.00 | 0.02 | 0.00 | 80 | 1015.5 |
| 20260510213106 | 77 | 148 | 5.0 | 9.0 | 0.00 | 0.02 | 0.00 | 80 | 1015.4 |
| 20260510211636 | 76 | 169 | 4.0 | 7.0 | 0.00 | 0.02 | 0.00 | 81 | 1015.4 |
| 20260510210057 | 76 | 168 | 5.0 | 9.0 | 0.00 | 0.02 | 0.00 | 79 | 1015.6 |
| 20260510204555 | 77 | 170 | 7.0 | 11.0 | 0.00 | 0.02 | 0.00 | 79 | 1015.5 |
| 20260510203056 | 78 | 148 | 3.0 | 8.0 | 0.00 | 0.02 | 0.00 | 77 | 1015.6 |
| 20260510201556 | 77 | 153 | 5.0 | 9.0 | 0.00 | 0.02 | 0.00 | 77 | 1015.6 |
| 20260510200059 | 77 | 187 | 5.0 | 10.0 | 0.00 | 0.02 | 0.00 | 77 | 1015.7 |
| 20260510194604 | 77 | 148 | 7.0 | 10.0 | 0.00 | 0.02 | 0.00 | 74 | 1015.7 |
| 20260510193057 | 77 | 166 | 7.0 | 9.0 | 0.00 | 0.02 | 0.00 | 75 | 1015.7 |
| 20260510191618 | 76 | 151 | 8.0 | 10.0 | 0.00 | 0.02 | 0.00 | 75 | 1016.0 |
| 20260510190106 | 76 | 142 | 7.0 | 9.0 | 0.00 | 0.02 | 0.00 | 75 | 1016.2 |
| 20260510184558 | 76 | 138 | 4.0 | 9.0 | 0.00 | 0.02 | 0.00 | 77 | 1016.4 |
| 20260510183104 | 77 | 188 | 4.0 | 7.0 | 0.00 | 0.02 | 0.00 | 77 | 1016.5 |
| 20260510181555 | 75 | 161 | 5.0 | 9.0 | 0.00 | 0.02 | 0.00 | 82 | 1016.8 |
| 20260510180103 | 75 | 144 | 5.0 | 9.0 | 0.00 | 0.02 | 0.00 | 83 | 1016.9 |
| 20260510174606 | 75 | 149 | 7.0 | 11.0 | 0.00 | 0.03 | 0.00 | 83 | 1016.8 |
| 20260510173104 | 75 | 143 | 4.0 | 9.0 | 0.00 | 0.03 | 0.00 | 84 | 1016.5 |
| 20260510171554 | 74 | 136 | 5.0 | 7.0 | 0.00 | 0.03 | 0.00 | 85 | 1016.7 |
| 20260510170110 | 73 | 114 | 5.0 | 7.0 | 0.00 | 0.03 | 0.00 | 85 | 1016.8 |
| 20260510164624 | 74 | 111 | 4.0 | 6.0 | 0.00 | 0.37 | 0.00 | 85 | 1017.1 |
| 20260510163102 | 73 | 120 | 4.0 | 7.0 | 0.00 | 0.37 | 0.00 | 87 | 1016.8 |
| 20260510161555 | 73 | 98 | 4.0 | 7.0 | 0.00 | 0.37 | 0.00 | 87 | 1016.9 |
| 20260510160117 | 72 | 86 | 5.0 | 6.0 | 0.00 | 0.37 | 0.00 | 86 | 1016.9 |
| 20260510154803 | 72 | 39 | 5.0 | 8.0 | 0.00 | 0.50 | 0.00 | 89 | 1016.9 |
| 20260510154604 | 72 | 86 | 4.0 | 8.0 | 0.00 | 0.50 | 0.00 | 88 | 1016.9 |
| 20260510154304 | 72 | 39 | 5.0 | 8.0 | 0.00 | 0.50 | 0.00 | 89 | 1016.9 |
| 20260510153803 | 72 | 39 | 5.0 | 8.0 | 0.00 | 0.50 | 0.00 | 89 | 1016.9 |
| 20260510153304 | 72 | 95 | 7.0 | 7.0 | 0.00 | 0.50 | 0.00 | 89 | 1016.9 |
| 20260510153057 | 72 | 39 | 6.0 | 8.0 | 0.00 | 0.50 | 0.00 | 89 | 1017.0 |
| 20260510152307 | 72 | 95 | 7.0 | 7.0 | 0.00 | 0.50 | 0.00 | 89 | 1016.9 |
| 20260510151803 | 71 | 74 | 6.0 | 7.0 | 0.00 | 0.50 | 0.00 | 90 | 1016.9 |
| 20260510151601 | 71 | 95 | 5.0 | 7.0 | 0.00 | 0.50 | 0.00 | 89 | 1017.0 |
| 20260510150803 | 71 | 74 | 6.0 | 7.0 | 0.00 | 0.50 | 0.00 | 90 | 1016.9 |
| 20260510150304 | 71 | 84 | 5.0 | 7.0 | 0.00 | 0.50 | 0.00 | 90 | 1016.9 |
| 20260510145804 | 71 | 91 | 5.0 | 7.0 | 0.00 | 0.50 | 0.00 | 90 | 1016.9 |
| 20260510145306 | 71 | 91 | 5.0 | 7.0 | 0.00 | 0.50 | 0.00 | 90 | 1016.9 |
| 20260510144804 | 71 | 83 | 5.0 | 7.0 | 0.00 | 0.50 | 0.00 | 90 | 1016.9 |
| 20260510144615 | 71 | 91 | 5.0 | 7.0 | 0.00 | 0.50 | 0.00 | 90 | 1017.0 |
| 20260510144304 | 71 | 70 | 5.0 | 6.0 | 0.00 | 0.50 | 0.00 | 89 | 1016.9 |
| 20260510143804 | 71 | 70 | 5.0 | 6.0 | 0.00 | 0.50 | 0.00 | 89 | 1016.9 |
| 20260510143304 | 72 | 69 | 4.0 | 6.0 | 0.00 | 0.50 | 0.00 | 89 | 1016.9 |
| 20260510143056 | 71 | 70 | 4.0 | 6.0 | 0.00 | 0.50 | 0.00 | 89 | 1017.0 |
| 20260510142803 | 72 | 66 | 3.0 | 5.0 | 0.00 | 0.50 | 0.00 | 88 | 1016.9 |
| 20260510142306 | 72 | 66 | 3.0 | 5.0 | 0.00 | 0.50 | 0.00 | 88 | 1016.9 |
| 20260510141804 | 72 | 66 | 3.0 | 5.0 | 0.00 | 0.50 | 0.00 | 88 | 1016.9 |
| 20260510141555 | 71 | 66 | 3.0 | 5.0 | 0.00 | 0.50 | 0.00 | 88 | 1016.9 |
| 20260510141304 | 72 | 89 | 3.0 | 5.0 | 0.00 | 0.50 | 0.00 | 88 | 1016.9 |
| 20260510140804 | 72 | 89 | 3.0 | 5.0 | 0.00 | 0.50 | 0.00 | 88 | 1016.9 |
| 20260510140304 | 72 | 89 | 3.0 | 6.0 | 0.00 | 0.50 | 0.00 | 88 | 1016.9 |
| 20260510140056 | 71 | 89 | 3.0 | 5.0 | 0.00 | 0.50 | 0.00 | 88 | 1016.7 |
| 20260510135804 | 71 | 57 | 3.0 | 6.0 | 0.00 | 0.50 | 0.00 | 89 | 1016.6 |
| 20260510134803 | 71 | 57 | 4.0 | 6.0 | 0.00 | 0.50 | 0.00 | 89 | 1016.6 |
| 20260510134556 | 71 | 57 | 4.0 | 6.0 | 0.00 | 0.50 | 0.00 | 89 | 1016.7 |
| 20260510134304 | 71 | 59 | 5.0 | 6.0 | 0.00 | 0.50 | 0.00 | 91 | 1016.6 |
| 20260510133803 | 71 | 59 | 5.0 | 6.0 | 0.00 | 0.50 | 0.00 | 91 | 1016.6 |
| 20260510133303 | 71 | 59 | 5.0 | 7.0 | 0.00 | 0.50 | 0.00 | 91 | 1016.6 |
| 20260510133055 | 70 | 59 | 5.0 | 6.0 | 0.00 | 0.50 | 0.00 | 91 | 1016.5 |
| 20260510132804 | 70 | 41 | 3.0 | 7.0 | 0.00 | 0.50 | 0.00 | 92 | 1016.6 |
| 20260510132306 | 70 | 41 | 4.0 | 9.0 | 0.00 | 0.50 | 0.00 | 92 | 1016.6 |
| 20260510131559 | 69 | 41 | 4.0 | 7.0 | 0.00 | 0.50 | 0.00 | 92 | 1016.6 |
| 20260510131304 | 70 | 37 | 5.0 | 9.0 | 0.00 | 0.50 | 0.00 | 93 | 1016.6 |
| 20260510130804 | 70 | 37 | 5.0 | 9.0 | 0.00 | 0.50 | 0.00 | 93 | 1016.6 |
| 20260510130304 | 69 | 53 | 5.0 | 8.0 | 0.00 | 0.50 | 0.00 | 93 | 1016.3 |
| 20260510130056 | 69 | 37 | 5.0 | 9.0 | 0.00 | 0.50 | 0.00 | 93 | 1016.4 |
| 20260510125803 | 69 | 53 | 5.0 | 8.0 | 0.00 | 0.50 | 0.00 | 93 | 1016.3 |
| 20260510125306 | 69 | 53 | 5.0 | 8.0 | 0.00 | 0.50 | 0.00 | 93 | 1016.3 |
| 20260510124804 | 69 | 50 | 5.0 | 5.0 | 0.00 | 0.50 | 0.00 | 93 | 1016.3 |
| 20260510124609 | 69 | 53 | 7.0 | 8.0 | 0.00 | 0.50 | 0.00 | 93 | 1016.1 |
| 20260510124304 | 69 | 50 | 5.0 | 5.0 | 0.00 | 0.50 | 0.00 | 93 | 1016.3 |
| 20260510123804 | 69 | 50 | 5.0 | 6.0 | 0.00 | 0.50 | 0.00 | 93 | 1016.3 |
| 20260510123304 | 69 | 53 | 3.0 | 6.0 | 0.00 | 0.50 | 0.00 | 94 | 1015.9 |
| 20260510123058 | 69 | 50 | 4.0 | 5.0 | 0.00 | 0.50 | 0.00 | 93 | 1016.0 |
| 20260510122804 | 69 | 53 | 3.0 | 6.0 | 0.00 | 0.50 | 0.00 | 94 | 1015.9 |
| 20260510122306 | 69 | 53 | 3.0 | 6.0 | 0.00 | 0.50 | 0.00 | 94 | 1015.9 |
| 20260510121804 | 68 | 41 | 3.0 | 5.0 | 0.00 | 0.50 | 0.00 | 95 | 1015.6 |
| 20260510121600 | 68 | 53 | 3.0 | 6.0 | 0.00 | 0.50 | 0.00 | 94 | 1015.8 |
| 20260510121304 | 68 | 41 | 3.0 | 5.0 | 0.00 | 0.50 | 0.00 | 95 | 1015.6 |
| 20260510120803 | 68 | 41 | 3.0 | 5.0 | 0.00 | 0.50 | 0.00 | 95 | 1015.6 |
| 20260510120304 | 68 | 6 | 0.0 | 3.0 | 0.00 | 0.50 | 0.00 | 95 | 1015.2 |
| 20260510120057 | 68 | 41 | 3.0 | 5.0 | 0.00 | 0.50 | 0.00 | 95 | 1015.4 |
| 20260510115803 | 68 | 6 | 0.0 | 3.0 | 0.00 | 0.50 | 0.00 | 95 | 1015.2 |
| 20260510115306 | 68 | 6 | 0.0 | 3.0 | 0.00 | 0.50 | 0.00 | 95 | 1015.2 |
| 20260510114558 | 67 | 6 | 1.0 | 4.0 | 0.00 | 0.50 | 0.00 | 95 | 1015.2 |
| 20260510114304 | 68 | 0 | 0.0 | 2.0 | 0.00 | 0.50 | 0.00 | 95 | 1015.2 |
| 20260510113803 | 68 | 0 | 0.0 | 2.0 | 0.00 | 0.50 | 0.00 | 95 | 1015.2 |
| 20260510113303 | 68 | 0 | 0.0 | 2.0 | 0.00 | 0.50 | 0.00 | 95 | 1014.9 |
| 20260510113055 | 67 | 0 | 0.0 | 2.0 | 0.00 | 0.50 | 0.00 | 95 | 1015.2 |
| 20260510112803 | 68 | 0 | 0.0 | 2.0 | 0.00 | 0.50 | 0.00 | 95 | 1014.9 |
| 20260510112305 | 68 | 0 | 0.0 | 2.0 | 0.00 | 0.50 | 0.00 | 95 | 1014.9 |
| 20260510111804 | 68 | 0 | 0.0 | 0.0 | 0.00 | 0.50 | 0.00 | 95 | 1014.6 |
| 20260510111557 | 67 | 0 | 0.0 | 2.0 | 0.00 | 0.50 | 0.00 | 95 | 1015.0 |
| 20260510111304 | 68 | 0 | 0.0 | 0.0 | 0.00 | 0.50 | 0.00 | 95 | 1014.6 |
| 20260510110804 | 68 | 0 | 0.0 | 0.0 | 0.00 | 0.50 | 0.00 | 95 | 1014.6 |
| 20260510110304 | 68 | 0 | 0.0 | 0.0 | 0.00 | 0.50 | 0.00 | 94 | 1014.6 |
| 20260510110054 | 68 | 0 | 0.0 | 0.0 | 0.00 | 0.50 | 0.00 | 95 | 1014.6 |
| 20260510105805 | 68 | 0 | 0.0 | 0.0 | 0.00 | 0.50 | 0.00 | 94 | 1014.6 |
| 20260510105306 | 68 | 0 | 0.0 | 0.0 | 0.00 | 0.50 | 0.00 | 94 | 1014.6 |
| 20260510104804 | 68 | 0 | 0.0 | 0.0 | 0.00 | 0.50 | 0.00 | 94 | 1014.5 |
| 20260510104604 | 68 | 0 | 0.0 | 0.0 | 0.00 | 0.50 | 0.00 | 94 | 1014.3 |
| 20260510104304 | 68 | 0 | 0.0 | 0.0 | 0.00 | 0.50 | 0.00 | 94 | 1014.2 |
| 20260510103304 | 68 | 0 | 0.0 | 0.0 | 0.00 | 0.50 | 0.00 | 94 | 1014.2 |
| 20260510103059 | 68 | 0 | 0.0 | 0.0 | 0.00 | 0.50 | 0.00 | 94 | 1014.2 |
| 20260510102804 | 68 | 0 | 0.0 | 0.0 | 0.00 | 0.50 | 0.00 | 94 | 1014.2 |
| 20260510102306 | 68 | 0 | 0.0 | 0.0 | 0.00 | 0.50 | 0.00 | 94 | 1014.2 |
| 20260510101803 | 68 | 0 | 0.0 | 0.0 | 0.00 | 0.50 | 0.00 | 94 | 1014.2 |
| 20260510101554 | 68 | 0 | 0.0 | 0.0 | 0.00 | 0.50 | 0.00 | 94 | 1014.2 |
| 20260510101304 | 68 | 0 | 0.0 | 0.0 | 0.00 | 0.52 | 0.00 | 94 | 1014.2 |
| 20260510100804 | 68 | 0 | 0.0 | 0.0 | 0.00 | 0.52 | 0.00 | 94 | 1014.2 |
| 20260510100304 | 69 | 0 | 0.0 | 0.0 | 0.00 | 0.52 | 0.00 | 93 | 1014.2 |
| 20260510100057 | 68 | 0 | 0.0 | 0.0 | 0.00 | 0.50 | 0.00 | 94 | 1014.1 |
| 20260510095804 | 69 | 0 | 0.0 | 0.0 | 0.00 | 0.52 | 0.00 | 93 | 1014.2 |
| 20260510094804 | 69 | 0 | 0.0 | 0.0 | 0.00 | 0.53 | 0.00 | 93 | 1013.9 |
| 20260510094605 | 68 | 0 | 0.0 | 0.0 | 0.00 | 0.50 | 0.00 | 93 | 1014.1 |
| 20260510093803 | 69 | 0 | 0.0 | 0.0 | 0.00 | 0.53 | 0.00 | 93 | 1013.5 |
| 20260510093304 | 69 | 0 | 0.0 | 0.0 | 0.00 | 0.54 | 0.00 | 93 | 1013.5 |
| 20260510093119 | 68 | 0 | 0.0 | 0.0 | 0.00 | 0.50 | 0.00 | 93 | 1013.6 |
| 20260510092804 | 69 | 0 | 0.0 | 0.0 | 0.00 | 0.54 | 0.00 | 92 | 1013.5 |
| 20260510092306 | 69 | 0 | 0.0 | 3.0 | 0.00 | 0.54 | 0.00 | 92 | 1013.5 |
| 20260510091803 | 71 | 343 | 0.0 | 3.0 | 0.00 | 0.56 | 0.00 | 92 | 1013.2 |
| 20260510091554 | 69 | 0 | 0.0 | 0.0 | 0.00 | 0.50 | 0.00 | 92 | 1013.4 |
| 20260510091304 | 71 | 343 | 0.0 | 3.0 | 0.00 | 0.57 | 0.00 | 92 | 1013.2 |
| 20260510090805 | 71 | 343 | 0.0 | 5.0 | 0.00 | 0.57 | 0.00 | 92 | 1013.2 |
| 20260510090304 | 71 | 83 | 3.0 | 5.0 | 0.00 | 0.57 | 0.00 | 92 | 1013.2 |
| 20260510090110 | 70 | 343 | 3.0 | 4.0 | 0.00 | 0.50 | 0.00 | 92 | 1013.3 |
| 20260510085804 | 71 | 83 | 3.0 | 5.0 | 0.00 | 0.57 | 0.00 | 92 | 1013.2 |
| 20260510085306 | 71 | 83 | 3.0 | 8.0 | 0.00 | 0.57 | 0.00 | 92 | 1013.2 |
| 20260510084601 | 70 | 83 | 2.0 | 5.0 | 0.00 | 0.52 | 0.00 | 92 | 1013.1 |
| 20260510084304 | 71 | 81 | 6.0 | 8.0 | 0.00 | 0.57 | 0.00 | 92 | 1012.9 |
| 20260510083804 | 71 | 81 | 6.0 | 8.0 | 0.00 | 0.57 | 0.00 | 92 | 1012.9 |
| 20260510083303 | 71 | 84 | 6.0 | 10.0 | 0.00 | 0.57 | 0.00 | 92 | 1012.8 |
| 20260510083058 | 70 | 81 | 5.0 | 8.0 | 0.00 | 0.52 | 0.00 | 92 | 1012.7 |
| 20260510082804 | 71 | 98 | 6.0 | 10.0 | 0.00 | 0.57 | 0.00 | 92 | 1012.5 |
| 20260510081804 | 71 | 96 | 6.0 | 12.0 | 0.00 | 0.57 | 0.00 | 92 | 1012.5 |
| 20260510081557 | 70 | 98 | 6.0 | 10.0 | 0.00 | 0.52 | 0.00 | 92 | 1012.6 |
| 20260510081304 | 71 | 96 | 6.0 | 12.0 | 0.00 | 0.57 | 0.00 | 92 | 1012.5 |
| 20260510080804 | 71 | 96 | 6.0 | 12.0 | 0.00 | 0.57 | 0.00 | 92 | 1012.5 |
| 20260510080304 | 70 | 56 | 8.0 | 10.0 | 0.00 | 0.57 | 0.00 | 92 | 1012.5 |
| 20260510080056 | 70 | 96 | 8.0 | 11.0 | 0.00 | 0.52 | 0.00 | 92 | 1012.4 |
| 20260510075804 | 70 | 56 | 8.0 | 10.0 | 0.00 | 0.57 | 0.00 | 92 | 1012.5 |
| 20260510075306 | 70 | 56 | 8.0 | 10.0 | 0.00 | 0.57 | 0.00 | 92 | 1012.5 |
| 20260510074804 | 70 | 62 | 7.0 | 9.0 | 0.00 | 0.57 | 0.00 | 93 | 1012.5 |
| 20260510074555 | 70 | 56 | 7.0 | 10.0 | 0.00 | 0.54 | 0.00 | 92 | 1012.5 |
| 20260510074304 | 70 | 62 | 7.0 | 9.0 | 0.00 | 0.57 | 0.00 | 93 | 1012.5 |
| 20260510073805 | 70 | 62 | 7.0 | 9.0 | 0.00 | 0.57 | 0.00 | 93 | 1012.5 |
| 20260510073305 | 70 | 32 | 5.0 | 8.0 | 0.00 | 0.57 | 0.00 | 93 | 1012.9 |
| 20260510073054 | 70 | 62 | 7.0 | 9.0 | 0.00 | 0.54 | 0.00 | 93 | 1012.6 |
| 20260510072305 | 70 | 32 | 5.0 | 8.0 | 0.00 | 0.57 | 0.00 | 93 | 1012.9 |
| 20260510071804 | 70 | 35 | 5.0 | 9.0 | 0.00 | 0.57 | 0.00 | 93 | 1012.9 |
| 20260510071557 | 70 | 32 | 4.0 | 8.0 | 0.00 | 0.54 | 0.00 | 93 | 1012.9 |
| 20260510071304 | 70 | 51 | 6.0 | 9.0 | 0.00 | 0.57 | 0.00 | 93 | 1012.9 |
| 20260510070804 | 70 | 51 | 6.0 | 9.0 | 0.00 | 0.57 | 0.00 | 93 | 1012.9 |
| 20260510070303 | 70 | 51 | 6.0 | 9.0 | 0.00 | 0.57 | 0.00 | 93 | 1012.9 |
| 20260510070058 | 69 | 51 | 6.0 | 9.0 | 0.00 | 0.54 | 0.00 | 93 | 1012.7 |
| 20260510065804 | 70 | 50 | 7.0 | 8.0 | 0.00 | 0.57 | 0.00 | 93 | 1012.9 |
| 20260510065306 | 70 | 50 | 7.0 | 8.0 | 0.00 | 0.57 | 0.00 | 93 | 1012.9 |
| 20260510064804 | 70 | 56 | 6.0 | 7.0 | 0.00 | 0.57 | 0.00 | 94 | 1012.9 |
| 20260510064557 | 69 | 50 | 7.0 | 8.0 | 0.00 | 0.57 | 0.00 | 93 | 1012.7 |
| 20260510064304 | 70 | 56 | 6.0 | 7.0 | 0.00 | 0.57 | 0.00 | 94 | 1012.9 |
| 20260510063804 | 70 | 56 | 6.0 | 7.0 | 0.00 | 0.57 | 0.00 | 94 | 1012.9 |
| 20260510063303 | 69 | 43 | 3.0 | 3.0 | 0.00 | 0.57 | 0.00 | 93 | 1013.2 |
| 20260510063053 | 69 | 56 | 5.0 | 7.0 | 0.00 | 0.57 | 0.00 | 94 | 1012.9 |
| 20260510062804 | 69 | 43 | 3.0 | 3.0 | 0.00 | 0.57 | 0.00 | 93 | 1013.2 |
| 20260510062306 | 69 | 43 | 3.0 | 3.0 | 0.00 | 0.57 | 0.00 | 93 | 1013.2 |
| 20260510061804 | 69 | 0 | 0.0 | 3.0 | 0.00 | 0.57 | 0.00 | 93 | 1013.2 |
| 20260510061557 | 69 | 43 | 0.0 | 3.0 | 0.00 | 0.57 | 0.00 | 93 | 1013.1 |
| 20260510061304 | 69 | 0 | 0.0 | 3.0 | 0.00 | 0.57 | 0.00 | 93 | 1013.2 |
| 20260510060804 | 69 | 0 | 0.0 | 3.0 | 0.00 | 0.57 | 0.00 | 93 | 1013.2 |
| 20260510060058 | 69 | 0 | 1.0 | 3.0 | 0.00 | 0.57 | 0.00 | 93 | 1013.2 |
| 20260510054556 | 69 | 0 | 1.0 | 2.0 | 0.00 | 0.57 | 0.00 | 93 | 1013.5 |
| 20260510054304 | 70 | 358 | 2.0 | 8.0 | 0.00 | 0.57 | 0.00 | 93 | 1013.2 |
| 20260510053102 | 70 | 358 | 4.0 | 8.0 | 0.00 | 0.57 | 0.00 | 93 | 1013.1 |
| 20260510052306 | 71 | 51 | 5.0 | 9.0 | 0.00 | 0.57 | 0.00 | 93 | 1012.9 |
| 20260510051803 | 71 | 48 | 6.0 | 8.0 | 0.00 | 0.57 | 0.00 | 93 | 1012.9 |
| 20260510051558 | 70 | 51 | 7.0 | 9.0 | 0.00 | 0.57 | 0.00 | 93 | 1013.0 |
| 20260510051304 | 71 | 48 | 6.0 | 8.0 | 0.00 | 0.57 | 0.00 | 93 | 1012.9 |
| 20260510050804 | 71 | 48 | 6.0 | 8.0 | 0.00 | 0.57 | 0.00 | 93 | 1012.9 |
| 20260510050304 | 70 | 26 | 1.0 | 8.0 | 0.00 | 0.57 | 0.00 | 93 | 1013.4 |
| 20260510050056 | 70 | 48 | 6.0 | 8.0 | 0.00 | 0.57 | 0.00 | 93 | 1012.9 |
| 20260510045804 | 70 | 0 | 0.0 | 0.0 | 0.00 | 0.57 | 0.50 | 93 | 1013.5 |
| 20260510045306 | 70 | 0 | 0.0 | 0.0 | 0.00 | 0.57 | 0.50 | 93 | 1013.5 |
| 20260510044804 | 70 | 0 | 0.0 | 0.0 | 0.00 | 0.57 | 0.50 | 93 | 1013.5 |
| 20260510044557 | 70 | 0 | 0.0 | 0.0 | 0.00 | 0.57 | 0.57 | 93 | 1013.4 |
| 20260510044304 | 70 | 0 | 0.0 | 0.0 | 0.00 | 0.57 | 0.50 | 93 | 1013.9 |
| 20260510043804 | 70 | 0 | 0.0 | 1.0 | 0.00 | 0.57 | 0.50 | 93 | 1013.9 |
| 20260510043103 | 70 | 0 | 0.0 | 0.0 | 0.00 | 0.57 | 0.57 | 93 | 1013.7 |
| 20260510042804 | 70 | 0 | 0.0 | 1.0 | 0.00 | 0.57 | 0.50 | 92 | 1013.9 |
| 20260510041804 | 71 | 0 | 0.0 | 2.0 | 0.00 | 0.57 | 0.50 | 92 | 1014.2 |
| 20260510041555 | 70 | 0 | 0.0 | 1.0 | 0.00 | 0.57 | 0.57 | 92 | 1013.8 |
| 20260510041304 | 71 | 0 | 0.0 | 2.0 | 0.00 | 0.57 | 0.50 | 92 | 1014.2 |
| 20260510040804 | 71 | 0 | 0.0 | 2.0 | 0.00 | 0.57 | 0.50 | 92 | 1014.2 |
| 20260510040304 | 71 | 0 | 0.0 | 0.0 | 0.00 | 0.57 | 0.50 | 92 | 1013.9 |
| 20260510040058 | 70 | 0 | 0.0 | 2.0 | 0.00 | 0.57 | 0.57 | 92 | 1014.1 |
| 20260510035804 | 71 | 0 | 0.0 | 0.0 | 0.00 | 0.57 | 0.50 | 92 | 1013.9 |
| 20260510034804 | 71 | 0 | 0.0 | 0.0 | 0.00 | 0.57 | 0.50 | 92 | 1013.9 |
| 20260510034556 | 70 | 0 | 0.0 | 0.0 | 0.00 | 0.57 | 0.57 | 92 | 1013.9 |
| 20260510034303 | 71 | 0 | 0.0 | 0.0 | 0.00 | 0.57 | 0.50 | 92 | 1013.9 |
| 20260510033804 | 71 | 0 | 0.0 | 0.0 | 0.00 | 0.57 | 0.50 | 92 | 1013.9 |
| 20260510033304 | 71 | 0 | 0.0 | 2.0 | 0.01 | 0.57 | 0.50 | 92 | 1013.9 |
| 20260510033107 | 71 | 0 | 0.0 | 0.0 | 0.00 | 0.57 | 0.57 | 92 | 1013.7 |
| 20260510032804 | 71 | 0 | 0.0 | 2.0 | 0.01 | 0.57 | 0.50 | 91 | 1013.5 |
| 20260510032306 | 71 | 0 | 0.0 | 5.0 | 0.01 | 0.57 | 0.50 | 91 | 1013.5 |
| 20260510031804 | 71 | 0 | 0.0 | 5.0 | 0.01 | 0.57 | 0.50 | 91 | 1013.5 |
| 20260510031556 | 71 | 0 | 0.0 | 2.0 | 0.01 | 0.57 | 0.57 | 91 | 1013.6 |
| 20260510030805 | 71 | 0 | 0.0 | 6.0 | 0.01 | 0.57 | 0.50 | 91 | 1013.5 |
| 20260510030303 | 71 | 98 | 0.0 | 6.0 | 0.01 | 0.57 | 0.50 | 91 | 1013.2 |
| 20260510025804 | 71 | 98 | 0.0 | 6.0 | 0.01 | 0.57 | 0.50 | 91 | 1013.2 |
| 20260510024803 | 71 | 94 | 5.0 | 7.0 | 0.01 | 0.57 | 0.50 | 91 | 1012.9 |
| 20260510024606 | 71 | 98 | 4.0 | 6.0 | 0.01 | 0.58 | 0.57 | 91 | 1013.2 |
| 20260510024303 | 71 | 94 | 5.0 | 7.0 | 0.01 | 0.57 | 0.50 | 91 | 1012.9 |
| 20260510023804 | 71 | 94 | 5.0 | 7.0 | 0.01 | 0.57 | 0.50 | 91 | 1012.9 |
| 20260510023304 | 71 | 124 | 3.0 | 6.0 | 0.00 | 0.56 | 0.49 | 91 | 1013.2 |
| 20260510023057 | 71 | 94 | 5.0 | 7.0 | 0.01 | 0.58 | 0.57 | 91 | 1013.0 |
| 20260510022804 | 71 | 124 | 3.0 | 6.0 | 0.00 | 0.56 | 0.49 | 91 | 1013.2 |
| 20260510021803 | 71 | 114 | 1.0 | 5.0 | 0.00 | 0.56 | 0.49 | 91 | 1013.2 |
| 20260510021558 | 71 | 124 | 4.0 | 6.0 | 0.00 | 0.58 | 0.56 | 91 | 1013.1 |
| 20260510021303 | 71 | 114 | 1.0 | 5.0 | 0.00 | 0.56 | 0.49 | 91 | 1013.2 |
| 20260510020804 | 71 | 114 | 1.0 | 5.0 | 0.00 | 0.56 | 0.49 | 91 | 1013.2 |
| 20260510020303 | 71 | 133 | 4.0 | 7.0 | 0.00 | 0.56 | 0.49 | 90 | 1013.5 |
| 20260510020058 | 71 | 114 | 3.0 | 5.0 | 0.00 | 0.58 | 0.56 | 91 | 1013.3 |
| 20260510015306 | 71 | 134 | 5.0 | 7.0 | 0.00 | 0.56 | 0.49 | 90 | 1013.5 |
| 20260510014804 | 71 | 134 | 5.0 | 7.0 | 0.00 | 0.56 | 0.49 | 90 | 1013.5 |
| 20260510014556 | 71 | 134 | 2.0 | 7.0 | 0.00 | 0.58 | 0.56 | 90 | 1013.4 |
| 20260510013804 | 71 | 148 | 5.0 | 6.0 | 0.00 | 0.56 | 0.49 | 90 | 1013.5 |
| 20260510013304 | 71 | 148 | 5.0 | 9.0 | 0.00 | 0.56 | 0.49 | 90 | 1013.5 |
| 20260510013057 | 71 | 148 | 4.0 | 6.0 | 0.00 | 0.58 | 0.56 | 90 | 1013.4 |
| 20260510012804 | 71 | 118 | 7.0 | 9.0 | 0.00 | 0.56 | 0.49 | 89 | 1013.5 |
| 20260510012306 | 71 | 118 | 7.0 | 14.0 | 0.00 | 0.56 | 0.49 | 89 | 1013.5 |
| 20260510011803 | 71 | 135 | 8.0 | 14.0 | 0.00 | 0.56 | 0.49 | 89 | 1013.2 |
| 20260510011557 | 71 | 118 | 6.0 | 9.0 | 0.00 | 0.58 | 0.56 | 89 | 1013.6 |
| 20260510010803 | 71 | 135 | 8.0 | 14.0 | 0.00 | 0.56 | 0.49 | 89 | 1013.2 |
| 20260510010304 | 71 | 132 | 9.0 | 12.0 | 0.00 | 0.56 | 0.49 | 89 | 1012.9 |
| 20260510010053 | 71 | 135 | 8.0 | 14.0 | 0.00 | 0.58 | 0.56 | 89 | 1013.1 |
| 20260510005804 | 71 | 132 | 9.0 | 12.0 | 0.00 | 0.56 | 0.49 | 89 | 1012.9 |
| 20260510004804 | 71 | 120 | 9.0 | 12.0 | 0.00 | 0.56 | 0.49 | 90 | 1012.5 |
| 20260510004602 | 71 | 132 | 8.0 | 11.0 | 0.00 | 0.62 | 0.56 | 89 | 1012.9 |
| 20260510004304 | 71 | 120 | 9.0 | 12.0 | 0.00 | 0.56 | 0.49 | 90 | 1012.5 |
| 20260510003804 | 71 | 120 | 9.0 | 12.0 | 0.00 | 0.56 | 0.49 | 90 | 1012.5 |
| 20260510003304 | 71 | 148 | 2.0 | 6.0 | 0.00 | 0.56 | 0.49 | 90 | 1012.5 |
| 20260510003058 | 71 | 120 | 8.0 | 11.0 | 0.00 | 0.62 | 0.56 | 90 | 1012.6 |
| 20260510002306 | 71 | 148 | 2.0 | 6.0 | 0.00 | 0.56 | 0.49 | 90 | 1012.5 |
| 20260510001803 | 71 | 120 | 3.0 | 3.0 | 0.00 | 0.56 | 0.49 | 90 | 1012.5 |
| 20260510001554 | 71 | 148 | 4.0 | 6.0 | 0.00 | 0.62 | 0.56 | 90 | 1012.5 |
| 20260510001304 | 71 | 120 | 3.0 | 3.0 | 0.01 | 0.56 | 0.49 | 90 | 1012.5 |
| 20260510000804 | 71 | 120 | 3.0 | 3.0 | 0.01 | 0.56 | 0.49 | 90 | 1012.5 |
| 20260510000304 | 71 | 136 | 0.0 | 3.0 | 0.01 | 0.56 | 0.49 | 89 | 1012.9 |
| 20260509235803 | 71 | 136 | 0.0 | 3.0 | 0.01 | 0.56 | 0.49 | 89 | 1012.9 |
| 20260509235307 | 71 | 136 | 0.0 | 3.0 | 0.01 | 0.56 | 0.49 | 89 | 1012.9 |
| 20260509234805 | 71 | 112 | 1.0 | 5.0 | 0.01 | 0.56 | 0.49 | 89 | 1012.9 |
| 20260509234558 | 70 | 136 | 1.0 | 3.0 | 0.01 | 0.62 | 0.56 | 89 | 1012.7 |
| 20260509234303 | 71 | 109 | 1.0 | 5.0 | 0.01 | 0.56 | 0.49 | 89 | 1012.9 |
| 20260509233803 | 71 | 109 | 1.0 | 5.0 | 0.01 | 0.56 | 0.49 | 89 | 1012.9 |
| 20260509233057 | 70 | 109 | 0.0 | 5.0 | 0.01 | 0.62 | 0.56 | 89 | 1012.8 |
| 20260509232306 | 71 | 0 | 0.0 | 2.0 | 0.01 | 0.56 | 0.49 | 88 | 1012.9 |
| 20260509231804 | 71 | 0 | 0.0 | 3.0 | 0.01 | 0.56 | 0.49 | 88 | 1012.9 |
| 20260509231556 | 70 | 0 | 0.0 | 2.0 | 0.01 | 0.62 | 0.56 | 88 | 1012.9 |
| 20260509231304 | 71 | 0 | 0.0 | 3.0 | 0.00 | 0.55 | 0.48 | 88 | 1012.9 |